GFSWCAN_prec_cthk_210.txt.gz
RH
41 48 45 44 46 40 38 38 39 42 46 49 56 67 74 82 88 91 92 97 99 91 81 91 89 96 93 96 97 84 95 95 98 97 95 84 70 58 59 66 65 72 83 89 93 97 83 75 68 69 58 67 66 68
43 42 47 44 44 45 39 36 36 38 42 47 51 62 76 92 96 98 96 98 99 98 84 89 89 91 95 94 96 96 94 90 91 93 84 83 79 72 70 83 84 89 93 99 91 98 91 74 80 80 81 79 74 69
39 44 43 46 43 42 42 38 34 33 35 41 48 48 57 73 89 94 97 98 98 98 91 92 89 88 96 97 99 95 93 93 95 89 93 89 86 71 62 61 68 83 89 93 87 78 87 94 88 83 79 81 75 68
31 36 43 43 44 44 44 41 36 32 31 31 33 38 40 47 70 85 95 96 99 98 93 84 89 96 96 98 97 95 96 96 90 94 99 96 89 86 87 80 61 66 76 79 74 72 81 83 89 87 83 79 73 65
31 31 34 39 40 41 44 45 40 35 31 30 28 27 29 31 44 74 91 96 99 99 90 90 90 92 97 97 98 95 98 99 97 98 96 92 84 87 85 84 77 71 68 75 73 74 84 91 81 79 85 78 75 71
36 33 31 32 35 38 38 43 42 38 35 31 28 23 22 25 35 68 86 97 99 98 94 90 88 91 94 94 93 97 98 99 98 97 96 89 79 89 86 81 78 87 88 83 83 77 71 78 84 82 86 82 79 78
39 38 37 34 32 30 35 37 40 43 38 32 25 22 19 21 29 54 70 88 96 99 97 92 90 93 92 89 85 91 98 97 93 88 85 90 95 98 90 83 80 76 82 81 76 68 63 68 67 71 76 81 79 73
41 40 40 39 38 33 27 35 37 38 39 30 23 19 19 20 28 39 61 84 94 99 98 95 89 89 96 98 97 87 86 88 88 88 92 97 99 98 86 63 74 71 68 69 72 71 66 61 59 60 68 69 69 72
35 37 40 42 40 37 31 30 39 36 40 29 22 21 22 28 37 44 54 76 90 99 98 95 92 91 94 98 98 98 98 98 97 98 98 98 98 90 73 64 56 59 64 71 71 68 67 65 60 59 59 57 59 63
32 33 34 39 41 37 33 31 39 38 41 32 25 28 25 30 34 40 46 77 96 98 98 96 94 96 93 96 98 97 98 97 97 96 96 96 86 84 84 80 76 75 77 78 74 72 68 66 65 63 62 66 61 53
28 30 32 33 39 38 32 33 37 42 43 40 35 31 29 29 34 43 53 67 94 97 94 96 95 96 97 98 97 97 96 93 95 91 95 86 81 86 85 84 85 82 78 79 78 75 71 70 73 75 72 68 57 54
27 27 29 32 34 37 31 30 36 48 52 50 46 38 34 33 38 42 50 58 89 94 96 95 94 95 98 98 98 97 96 91 93 88 93 85 88 90 96 97 95 94 95 93 88 87 85 84 83 78 69 68 68 70
28 27 28 30 33 35 33 34 36 44 46 50 57 51 38 32 39 42 46 54 72 95 93 93 95 94 91 91 89 90 90 91 87 92 83 81 90 93 97 98 98 98 96 95 95 94 89 85 82 81 82 83 79 78
28 30 28 27 31 31 38 32 35 41 46 56 59 53 43 35 32 34 40 50 64 83 93 92 92 89 87 88 87 90 88 87 88 85 78 84 91 95 97 95 91 92 93 92 92 90 89 88 86 84 82 82 81 79
29 30 30 27 31 33 28 26 29 36 49 54 57 58 50 36 33 36 42 47 53 59 68 83 86 84 82 84 82 84 84 82 75 78 82 90 94 96 97 94 93 92 93 93 90 86 85 84 84 84 83 80 75 71
33 30 32 32 35 33 35 26 27 37 50 50 52 61 54 47 45 38 40 47 49 53 58 63 68 77 82 79 77 77 73 69 75 77 86 92 91 93 95 96 93 91 91 91 91 90 89 88 86 85 82 78 75 76
35 36 35 34 35 33 36 28 33 45 48 46 47 54 54 48 49 36 36 43 48 54 62 62 63 67 69 71 72 71 75 74 76 76 79 84 87 91 93 94 95 96 95 94 93 92 89 84 80 77 74 72 71 72
38 37 33 32 33 33 30 30 37 44 46 43 47 48 56 57 50 44 37 38 44 51 58 60 60 61 62 55 58 66 71 70 68 68 70 73 78 86 89 91 92 93 93 91 86 81 75 71 70 69 69 71 71 72
41 43 33 34 40 46 35 33 37 46 40 44 44 48 52 59 60 52 43 39 42 44 53 62 64 61 56 53 55 59 61 60 60 58 58 61 68 75 79 82 85 86 83 77 71 68 68 70 74 71 71 71 74 75
34 43 37 38 40 53 45 36 45 49 45 42 44 49 55 60 65 64 57 46 48 50 50 47 50 58 58 61 57 58 59 60 61 62 64 65 72 80 83 83 81 82 81 78 77 74 72 72 76 79 77 74 72 72
39 40 41 41 41 52 50 44 48 49 52 48 46 53 59 64 68 75 69 58 57 54 48 41 41 45 55 63 67 64 65 65 65 67 70 71 68 76 87 87 85 87 84 78 70 68 75 74 68 67 70 71 71 72
52 56 52 59 57 55 51 45 45 57 59 57 54 58 62 67 72 74 78 72 60 48 46 43 44 44 45 51 63 72 72 71 72 73 74 72 72 68 69 77 80 76 72 67 65 67 71 75 73 70 68 70 71 71
62 62 60 67 71 74 66 59 47 42 60 61 61 65 66 69 72 76 86 74 60 50 49 48 47 49 52 50 54 63 72 76 72 69 67 68 64 69 70 67 66 69 74 74 74 73 70 70 71 71 72 68 68 68
70 71 69 74 71 64 80 77 70 59 54 56 69 67 69 71 79 83 85 78 62 56 56 53 54 54 57 59 60 61 61 62 62 61 59 58 58 58 60 61 63 66 67 65 65 69 73 73 74 77 75 72 72 70
79 82 82 84 79 71 76 97 89 83 74 61 63 76 81 77 85 84 89 85 72 64 60 60 60 61 60 62 65 68 67 67 65 62 61 62 61 60 60 62 63 64 63 62 63 64 64 64 66 74 79 79 77 76
95 96 96 91 84 81 72 81 81 73 75 82 81 80 84 86 86 86 91 91 80 73 69 64 63 65 66 68 68 71 72 74 74 73 71 70 69 68 67 66 67 66 66 66 65 64 63 63 65 67 68 71 77 82
98 97 87 94 96 93 88 86 79 74 73 70 85 85 87 90 86 87 91 90 89 78 73 68 71 74 76 76 74 72 72 73 71 70 71 71 69 67 66 65 65 63 63 64 67 68 69 68 68 68 70 73 74 74
93 95 96 98 97 93 95 95 97 97 88 86 88 89 94 91 90 92 97 96 91 87 83 75 76 78 80 80 79 78 77 77 76 75 74 73 70 67 64 62 61 59 60 61 63 65 66 69 72 74 75 75 75 77
94 94 94 95 96 97 96 95 97 97 97 95 93 90 92 95 97 98 98 97 93 84 87 84 79 80 79 77 74 72 71 71 72 70 67 64 61 59 56 50 44 41 42 46 48 52 58 63 67 69 73 77 82 85
93 90 90 91 94 97 98 97 98 98 99 99 98 98 98 99 97 96 92 92 89 82 82 77 71 70 70 67 64 60 54 47 40 35 37 37 36 38 39 39 40 41 42 44 48 51 53 55 59 64 66 70 75 81
87 85 87 91 98 98 98 96 98 99 99 99 99 98 98 98 99 99 98 96 92 80 75 72 66 62 56 45 36 31 30 30 31 32 34 37 40 41 40 39 36 33 30 29 32 39 46 49 54 56 61 65 72 77
88 89 93 95 97 98 98 96 98 98 99 98 99 99 99 99 98 99 99 97 90 77 63 55 49 43 38 35 33 34 36 38 40 42 46 50 50 48 46 43 39 37 35 32 28 28 31 37 45 54 58 63 67 73
97 97 98 98 98 97 98 97 97 98 98 98 98 99 99 98 98 99 99 99 98 98 94 85 76 67 55 48 47 49 54 60 62 61 59 57 55 52 48 44 41 41 42 43 41 38 36 36 39 44 51 59 67 70

GFSWCAN_prec_cthk_213.txt.gz
RH
35 37 40 42 46 47 45 44 42 38 38 41 44 48 56 70 80 85 81 91 95 90 82 91 90 94 91 93 96 79 93 93 98 98 96 91 91 71 75 55 59 75 90 91 91 96 87 65 73 74 58 65 75 67
33 33 36 40 42 46 44 43 43 40 37 36 39 47 53 56 69 85 87 93 97 95 83 87 87 89 95 97 98 96 95 93 94 92 90 84 88 75 71 77 69 69 81 78 88 82 66 69 83 72 75 72 73 65
34 31 30 32 39 42 45 45 43 41 38 35 33 34 38 44 49 61 72 81 98 95 81 83 84 87 90 95 97 97 94 95 95 94 91 90 95 79 81 74 77 68 66 80 83 62 70 75 68 64 76 79 75 72
38 35 31 29 29 33 39 41 44 43 42 37 34 32 32 33 35 38 50 70 94 97 87 72 84 90 91 95 99 97 98 99 96 96 97 96 93 90 89 96 97 81 69 73 62 61 63 65 60 79 94 77 81 80
39 38 37 33 30 28 30 34 36 40 42 40 36 34 32 30 29 29 36 52 85 98 90 85 86 82 89 98 97 98 99 99 98 99 97 90 81 89 82 83 84 82 76 85 80 73 63 47 71 84 97 94 79 82
44 43 40 36 35 33 31 30 29 31 37 41 41 37 31 28 27 33 40 43 72 93 97 89 82 80 88 94 92 94 95 98 98 97 97 84 79 90 82 74 68 75 74 75 64 71 56 83 88 86 87 89 89 83
40 40 39 38 39 37 36 35 31 26 30 35 38 38 29 24 25 38 42 49 60 81 97 91 86 90 90 96 93 90 91 95 98 98 93 88 89 90 84 70 64 82 82 92 95 90 95 87 83 82 81 86 90 90
38 38 36 33 35 37 40 36 34 30 27 34 34 36 27 22 23 31 42 52 62 83 94 96 88 91 90 91 98 98 93 89 91 91 90 89 91 92 80 64 70 76 78 85 84 88 83 79 73 77 78 81 80 82
37 36 33 32 32 34 36 38 32 31 27 33 36 34 29 31 39 50 46 47 55 73 90 96 91 96 95 94 95 98 98 98 93 93 91 92 90 88 74 79 78 77 81 77 76 78 77 74 70 69 68 68 74 70
39 37 32 29 29 33 33 37 31 29 28 34 39 46 41 42 36 33 41 55 68 74 94 91 90 92 93 96 98 97 97 98 93 89 95 96 83 81 84 87 80 79 82 79 71 76 77 74 71 70 69 66 66 65
39 37 33 28 28 30 33 34 34 27 34 47 53 52 45 39 37 43 56 58 66 72 90 95 92 92 98 96 99 96 98 96 94 93 90 87 80 81 87 87 89 81 71 67 68 73 73 74 80 73 68 67 70 69
39 37 34 30 28 30 32 34 38 36 43 46 50 48 47 52 51 53 50 49 49 62 86 88 95 93 96 97 98 96 97 94 95 87 89 78 89 86 84 89 91 92 89 87 89 88 84 85 87 86 84 78 76 64
39 37 38 33 29 30 32 34 38 35 34 44 52 57 55 52 59 55 50 39 48 66 65 81 93 95 95 95 96 95 96 95 85 89 81 83 84 84 88 90 91 91 94 96 99 99 98 96 96 92 88 79 70 66
41 40 38 37 31 31 33 35 31 29 37 55 58 61 48 50 48 39 40 41 48 44 61 73 88 92 92 95 94 96 92 87 94 89 85 88 85 90 94 93 95 94 94 94 97 98 98 98 96 93 89 87 86 85
42 43 37 34 33 34 36 35 31 33 45 58 55 54 40 38 49 49 45 39 39 44 52 65 77 85 89 90 88 88 89 89 79 85 84 92 91 96 97 96 95 94 94 95 98 98 97 95 92 90 88 87 85 83
45 43 40 37 37 36 37 36 38 40 47 52 50 45 39 46 52 49 46 44 46 51 48 51 59 68 76 81 81 83 79 74 79 82 81 91 94 97 97 98 97 95 94 91 89 89 89 88 86 85 85 83 81 79
44 44 41 39 35 31 33 37 40 50 50 45 48 41 43 47 48 50 52 47 48 48 56 71 58 55 69 70 71 73 75 83 79 77 82 90 94 95 97 96 97 97 96 93 91 89 87 86 85 84 83 82 80 78
43 46 43 47 42 38 36 45 42 43 43 39 43 49 40 41 49 49 51 57 52 45 57 64 65 60 60 60 57 70 72 74 74 75 79 81 88 91 93 94 95 95 93 93 91 88 86 85 82 78 77 77 77 75
40 38 39 43 48 47 51 44 42 44 37 39 41 47 48 46 45 51 51 56 57 52 67 67 60 53 55 57 62 69 62 66 68 67 69 73 78 83 86 88 90 91 91 91 88 84 79 75 72 72 72 74 75 76
37 36 33 37 54 55 53 48 45 48 39 40 49 47 48 48 50 50 55 56 66 61 56 51 54 60 60 65 56 62 62 62 60 63 63 64 67 73 77 81 83 86 86 82 75 70 68 68 68 71 72 73 73 74
42 44 44 49 55 62 58 51 51 52 54 50 53 55 54 53 56 56 59 63 70 73 58 44 45 48 45 52 55 56 55 60 65 66 68 71 74 80 84 84 83 79 77 77 75 73 68 63 62 68 69 70 70 71
52 53 61 66 68 72 64 53 54 50 63 64 70 73 68 61 58 61 66 71 68 73 61 53 52 49 41 44 55 63 62 66 68 68 72 74 71 67 78 86 85 84 84 79 70 66 69 72 67 64 67 70 70 69
55 63 64 75 75 73 62 59 59 52 54 44 65 79 78 68 65 67 74 67 69 75 71 56 52 51 54 48 49 57 71 71 70 71 74 73 69 68 66 67 72 74 71 69 65 65 68 72 73 71 68 67 69 72
77 79 80 80 80 77 72 67 72 71 64 58 51 86 78 77 82 79 68 66 71 83 76 62 56 55 57 56 55 54 57 67 75 76 71 66 66 62 62 63 64 64 69 72 72 72 70 69 69 70 70 71 68 68
86 90 90 83 76 80 73 68 90 93 88 78 60 62 88 93 87 80 72 72 81 88 82 70 64 61 60 60 59 60 62 61 58 61 64 63 60 60 60 60 60 62 63 65 64 63 65 69 72 74 76 76 73 70
86 92 82 86 88 87 83 75 91 85 92 97 90 66 77 96 92 83 83 86 88 93 87 75 70 67 65 66 68 68 66 65 63 60 60 60 61 62 62 61 61 61 61 62 61 61 61 62 64 66 67 70 75 78
97 97 96 96 87 88 91 87 86 85 85 81 80 85 92 95 93 96 91 88 90 96 94 85 81 74 73 69 71 73 73 72 71 70 70 69 69 69 69 68 66 65 64 65 64 64 65 65 64 63 62 63 66 69
97 96 95 95 90 88 94 95 94 97 89 89 80 86 95 97 97 95 91 89 91 98 98 92 88 76 75 75 77 79 77 76 75 72 70 71 72 72 69 67 66 63 62 61 60 61 62 64 66 67 67 66 66 67
89 86 92 94 95 97 92 93 94 95 97 98 98 98 96 98 99 98 93 95 98 98 98 93 90 84 84 87 87 85 83 82 80 77 76 74 71 69 67 65 64 63 61 59 57 56 57 60 64 66 67 69 71 73
86 85 91 89 91 94 88 87 90 94 93 96 97 97 98 99 98 99 98 98 98 99 98 96 92 86 85 85 84 82 80 79 79 78 77 72 66 62 56 51 46 40 37 37 39 42 46 49 53 56 61 64 67 70
86 86 84 82 84 88 91 95 94 94 92 94 97 96 98 99 99 99 97 98 98 99 98 96 98 88 83 81 76 73 71 65 60 56 50 39 32 31 31 32 32 33 33 33 34 38 43 48 51 52 54 57 59 63
85 82 82 81 84 86 93 98 98 98 98 98 99 99 99 98 98 99 99 99 97 94 94 88 80 74 65 61 59 57 51 45 37 30 30 32 33 34 36 38 40 42 41 40 36 31 32 35 40 46 49 50 54 56
89 89 90 92 92 96 97 98 98 98 98 98 98 99 98 98 98 99 99 99 98 94 88 81 72 59 48 37 35 35 34 32 33 34 35 36 38 41 45 48 48 50 51 49 46 42 39 38 37 38 40 45 48 54

GFSWCAN_prec_cthk_219.txt.gz
RH
28 36 37 35 34 35 34 38 42 42 45 45 45 45 44 44 46 46 48 62 72 73 73 78 78 84 84 88 89 83 92 86 92 96 93 89 88 78 72 58 68 71 80 71 77 87 80 28 30 56 34 36 30 48
32 40 40 38 38 36 35 33 32 35 39 43 45 46 45 45 44 46 37 43 53 65 55 56 57 56 69 70 84 90 94 95 98 99 97 96 91 86 80 85 74 76 74 75 83 71 55 47 58 47 53 49 46 57
39 47 46 42 40 39 40 38 35 31 28 32 38 44 46 48 47 47 45 43 51 50 39 38 27 38 59 72 79 93 91 93 95 96 98 98 93 86 90 80 78 74 78 85 93 69 73 74 71 70 66 71 70 64
44 47 46 45 45 44 45 46 45 42 34 29 28 32 37 42 48 49 51 46 56 63 62 29 29 31 52 69 78 82 83 95 99 99 98 98 94 88 85 81 81 76 80 78 73 72 82 81 81 76 71 71 69 82
42 45 44 43 44 43 43 45 46 47 46 41 37 30 29 32 38 48 45 39 47 64 53 39 34 30 40 53 64 78 90 95 99 98 98 97 94 96 89 89 63 77 69 79 67 69 85 92 90 95 89 91 83 80
39 38 36 36 41 38 38 41 42 43 43 41 44 43 36 32 36 45 45 39 47 65 83 74 48 28 46 75 83 95 96 97 99 98 96 94 92 95 93 76 66 69 68 78 81 82 81 79 93 92 89 81 90 86
47 45 44 43 39 37 36 37 38 40 39 37 37 45 38 34 37 46 41 43 47 55 76 64 51 39 45 63 86 95 96 98 99 98 97 98 94 95 90 73 68 68 67 63 67 70 75 79 85 80 87 97 94 92
49 47 45 43 40 38 37 37 38 37 36 34 29 34 34 29 34 36 29 36 48 59 75 75 59 51 48 62 86 92 93 92 89 90 91 93 87 85 78 61 60 60 62 69 66 72 79 82 82 84 86 90 92 96
48 47 46 42 39 37 37 36 38 38 36 30 29 28 29 31 37 40 48 56 65 71 76 70 67 64 62 66 92 97 94 89 87 85 86 88 86 79 68 67 67 69 69 71 74 75 74 77 84 92 98 90 96 95
48 46 44 41 39 37 37 37 37 38 36 31 34 43 57 58 60 60 62 65 75 75 76 72 73 68 69 77 89 98 93 92 89 80 83 85 78 72 69 71 72 75 76 77 76 74 78 81 85 93 96 86 86 90
46 43 41 40 39 38 39 43 43 40 38 41 53 59 62 62 62 60 59 64 63 68 69 63 63 70 82 90 98 93 95 95 94 89 93 91 84 88 86 84 85 85 86 88 90 84 77 75 82 94 87 88 87 90
44 43 41 40 41 42 42 45 48 46 48 46 48 40 36 39 47 53 56 53 60 62 63 71 76 74 74 83 89 92 95 96 94 94 96 90 84 85 86 82 76 75 79 83 86 87 81 82 83 83 81 88 92 93
43 46 44 45 44 44 47 45 47 47 45 42 48 52 53 51 60 66 62 56 56 50 62 70 85 71 69 86 91 92 98 97 92 97 93 90 89 85 85 81 78 77 79 81 82 86 88 88 86 86 78 82 86 89
49 47 46 48 45 46 48 48 46 46 45 48 62 68 57 59 54 47 42 44 45 56 70 75 63 59 74 88 91 94 89 95 97 91 88 92 90 87 85 82 84 85 84 85 86 90 92 93 91 90 87 80 83 85
51 50 49 46 50 54 52 50 51 51 54 54 55 65 58 42 42 41 46 46 57 71 70 57 48 61 79 93 91 84 87 93 89 92 99 94 88 87 86 86 88 91 90 89 89 92 94 95 96 98 96 94 86 83
49 48 45 50 55 54 55 54 50 58 59 50 47 53 44 46 45 45 46 47 58 59 52 53 59 61 70 72 77 79 73 68 76 93 90 86 83 86 88 88 91 91 93 93 92 93 93 96 98 98 95 90 87 83
48 49 56 59 58 56 58 60 62 59 56 57 50 34 30 29 34 41 46 47 51 58 60 69 77 69 67 77 75 67 66 72 82 81 77 77 80 88 90 91 96 95 96 95 93 92 92 94 95 96 95 95 93 92
50 54 57 57 57 54 52 58 66 63 57 45 45 34 34 44 45 42 37 40 55 68 63 69 70 73 72 68 71 72 67 67 72 67 66 68 77 88 95 97 98 98 98 95 94 93 91 91 90 90 90 89 89 89
54 53 57 53 48 52 49 59 60 57 48 44 43 43 42 42 39 37 41 44 53 53 55 74 78 70 64 66 72 75 76 77 67 57 57 58 67 81 92 97 98 98 98 95 94 92 90 88 86 85 83 84 85 86
50 59 65 59 55 62 59 54 57 60 55 46 43 47 47 49 45 45 52 56 68 68 68 71 70 64 64 69 71 72 78 83 68 54 51 52 56 69 83 91 96 97 98 97 96 92 85 78 74 73 75 76 77 77
53 48 52 57 59 67 63 54 58 56 57 60 54 60 61 57 57 52 55 59 66 70 65 61 62 64 67 68 71 64 67 73 61 53 47 55 57 63 68 76 84 92 96 97 95 89 79 73 71 71 73 74 75 76
46 55 60 66 68 66 67 60 56 45 48 49 46 44 50 52 51 61 71 67 70 67 64 61 64 66 68 69 71 68 67 62 60 55 51 57 63 67 72 78 83 84 87 91 89 84 81 75 70 68 72 72 72 75
53 58 67 66 68 69 59 54 60 61 74 66 55 57 56 49 42 55 73 75 75 69 66 69 69 69 73 72 72 80 79 63 58 56 56 57 61 68 73 72 79 85 86 87 82 74 69 69 68 63 63 72 75 72
68 73 76 74 70 62 53 56 59 61 66 69 70 77 72 62 55 62 68 72 77 75 70 67 69 72 73 73 83 85 82 70 54 56 60 62 62 64 65 66 67 70 73 72 72 72 74 76 75 70 68 70 73 73
77 85 88 89 79 82 72 64 61 63 65 65 71 79 69 74 81 74 65 83 96 96 91 82 76 74 76 84 89 90 90 91 70 68 73 68 62 62 63 63 63 65 69 75 77 77 75 73 73 73 74 73 72 70
78 78 86 93 92 87 83 75 72 76 76 81 75 72 79 93 90 86 94 97 98 94 94 98 93 87 87 86 95 93 92 93 86 76 72 72 70 67 64 62 60 59 57 58 60 64 69 74 76 76 75 75 75 74
91 97 97 92 88 93 96 92 88 90 91 97 98 98 98 98 97 92 93 93 95 97 98 99 97 98 97 96 98 98 97 94 84 83 78 67 62 59 59 59 59 61 61 60 58 56 55 56 59 62 66 69 70 72
97 91 89 90 87 85 91 94 96 98 96 91 93 98 98 98 98 98 98 97 98 98 98 98 95 95 97 97 98 98 98 98 96 89 80 73 69 65 63 62 61 60 60 59 59 59 58 58 58 58 59 60 60 59
97 85 87 90 86 94 99 98 94 90 88 85 91 98 98 98 99 98 97 98 96 98 98 98 95 93 95 98 98 99 99 98 96 92 83 76 73 71 70 70 68 67 66 64 63 62 60 58 57 56 57 58 60 61
94 90 94 91 90 98 94 84 83 85 84 84 83 89 93 94 95 96 96 96 97 98 97 98 98 98 98 98 97 97 97 98 96 89 87 86 83 80 78 76 75 72 68 64 62 60 59 59 58 58 57 57 58 60
96 95 90 88 93 95 85 85 90 86 84 82 79 81 90 95 94 92 92 98 98 98 97 97 96 97 98 98 98 98 98 99 96 93 93 91 87 85 82 77 72 68 65 62 58 55 52 48 44 42 41 44 47 51
98 93 89 90 93 90 86 82 95 94 87 82 83 85 88 90 96 93 91 92 96 95 95 95 96 97 98 98 98 98 98 98 98 94 94 93 89 83 76 69 63 57 53 39 30 26 31 37 42 44 46 50 51 52
98 89 80 79 82 87 86 82 93 91 86 88 89 91 91 92 98 99 97 95 97 95 89 91 95 95 96 97 97 97 97 96 94 91 82 77 70 62 58 54 49 39 31 32 34 35 37 40 47 50 51 51 49 48

GFSWCAN_prec_cthk_225.txt.gz
RH
28 28 29 31 26 28 32 37 40 40 37 36 37 40 43 49 55 59 58 61 64 57 51 46 42 45 46 47 52 50 65 61 77 91 95 91 93 86 79 71 75 82 95 93 97 95 78 49 54 65 57 51 52 51
27 30 34 34 29 33 38 45 50 47 44 41 36 32 33 38 46 57 57 61 67 71 58 49 44 40 46 43 53 53 54 58 64 84 93 96 92 91 89 88 82 85 82 88 91 75 60 61 61 63 59 58 61 62
25 32 37 34 33 36 39 45 51 51 49 49 48 44 40 35 38 44 49 57 65 68 59 51 37 41 44 42 49 60 44 44 58 71 86 93 93 88 86 80 82 76 77 87 93 60 72 67 67 58 59 63 67 62
29 35 39 36 35 39 39 44 49 51 49 48 47 46 46 47 48 45 41 41 51 62 60 37 39 38 35 38 47 47 43 52 61 80 89 93 92 89 87 86 86 83 87 85 83 69 75 62 65 59 62 61 62 68
37 35 31 32 33 37 39 45 49 49 49 50 49 48 45 48 52 55 54 49 49 53 53 42 35 29 36 43 47 49 54 58 71 93 96 92 91 94 88 86 76 84 82 91 82 69 73 65 63 67 63 59 61 69
41 34 31 36 41 43 47 49 51 47 44 43 43 47 45 47 52 55 52 44 52 58 64 54 44 38 38 44 48 53 54 60 76 91 96 94 89 96 86 73 61 79 81 77 72 68 71 67 61 64 60 62 64 72
42 36 36 43 46 48 49 51 51 49 46 45 42 42 44 45 49 56 44 49 65 68 68 63 48 38 40 47 49 55 64 69 73 87 95 98 97 99 88 76 57 76 77 75 73 70 65 65 60 62 62 64 66 69
46 45 46 50 52 52 53 53 51 49 51 50 47 48 46 45 46 48 38 50 67 62 73 67 50 41 41 55 62 67 76 75 72 88 97 96 97 95 83 66 69 74 78 80 79 79 76 73 70 68 67 66 64 77
54 55 56 56 58 56 54 52 50 48 52 53 52 50 48 47 45 34 45 50 55 61 55 51 52 54 58 64 68 75 81 80 77 87 88 91 87 81 73 77 82 85 88 89 85 82 81 82 80 75 67 66 72 90
62 63 63 62 58 54 51 50 52 52 55 53 50 48 48 50 48 57 71 80 81 77 66 60 61 61 61 70 72 77 81 90 87 74 81 84 73 70 78 83 87 88 88 83 80 76 76 84 89 81 75 72 79 95
67 68 64 60 57 55 53 52 53 57 52 55 58 57 55 61 72 75 76 76 82 80 71 59 59 57 68 74 77 76 79 79 82 73 82 83 74 85 93 93 90 87 81 77 75 75 74 80 85 82 77 85 95 97
69 64 60 56 56 58 59 59 58 58 55 57 57 56 54 58 72 80 80 73 72 65 54 54 55 62 68 80 86 81 73 76 79 85 92 95 91 92 89 87 85 79 77 72 72 74 74 78 82 82 85 96 95 98
63 60 59 57 60 59 62 59 58 59 62 60 54 54 49 47 60 64 65 67 64 58 57 61 67 75 90 92 88 80 77 77 84 84 75 73 80 79 80 79 79 80 76 72 72 76 77 82 86 91 94 95 96 98
60 63 58 58 62 63 60 61 69 70 65 60 62 59 56 56 53 49 50 52 51 63 68 70 74 89 94 93 86 82 70 74 84 83 71 70 71 78 76 76 80 79 77 74 76 79 84 90 93 97 98 98 96 97
65 65 67 69 67 66 67 73 73 71 67 61 60 61 57 45 48 60 65 62 64 65 72 73 76 83 92 96 88 81 75 78 80 72 68 59 66 68 66 67 76 80 80 79 82 83 91 97 97 98 98 97 98 98
69 68 68 72 71 70 73 72 71 68 72 61 57 56 48 55 53 56 62 67 70 74 72 83 93 96 92 87 87 74 73 69 60 65 63 59 56 58 59 65 73 79 85 87 87 87 89 97 98 98 98 97 98 98
68 65 70 76 72 70 71 72 75 72 64 61 55 45 44 44 43 40 51 55 68 70 73 76 90 85 76 84 74 65 63 59 58 65 64 61 59 57 56 64 74 84 89 92 93 93 93 94 98 98 98 98 98 98
65 63 70 68 68 66 66 67 68 68 65 55 53 44 46 47 47 45 43 44 49 55 62 72 75 76 80 69 61 56 58 60 67 69 65 63 67 61 52 56 65 85 90 92 94 94 95 96 96 95 96 97 96 95
57 57 64 62 72 74 69 64 59 57 51 50 48 46 46 45 45 50 55 55 56 57 61 66 64 67 62 53 52 52 61 66 64 63 66 68 65 59 51 55 62 83 97 97 95 94 93 92 93 95 98 98 98 97
60 62 62 69 74 73 72 64 62 62 63 58 58 59 59 55 52 53 56 55 57 63 69 73 63 56 60 57 67 64 65 67 69 73 69 68 64 54 52 52 57 72 92 98 97 97 95 90 89 88 87 89 92 94
66 62 69 66 65 71 73 68 64 60 59 59 56 57 53 50 48 46 47 50 53 55 55 55 58 59 63 68 67 67 70 68 76 70 71 71 64 55 53 53 56 60 77 92 95 93 93 89 82 78 76 77 80 83
57 65 65 66 68 68 63 60 60 53 49 47 44 40 45 51 45 41 42 46 45 42 44 46 43 51 56 58 60 64 67 69 76 72 73 74 67 60 58 53 56 62 68 78 91 92 89 88 84 82 80 80 81 82
70 68 67 64 65 67 62 53 54 51 57 53 50 56 56 53 46 45 55 46 41 47 49 48 50 51 51 48 46 55 65 67 76 79 75 71 69 62 58 53 60 67 74 78 81 89 91 88 83 79 77 78 79 79
66 68 68 69 70 60 54 56 56 58 61 63 65 61 54 49 47 54 52 55 64 59 56 54 52 48 47 49 49 56 62 68 74 80 78 75 75 66 59 54 61 65 69 76 81 84 84 80 77 76 73 74 78 78
67 75 76 74 67 67 65 62 62 65 62 61 64 63 59 61 63 63 65 66 63 65 69 66 64 61 57 57 62 66 72 74 80 80 78 79 76 69 62 57 58 60 61 67 71 73 74 77 80 77 72 69 75 75
68 58 66 75 77 77 78 78 74 71 72 79 77 78 85 90 91 88 85 86 82 80 82 77 76 72 72 73 74 75 75 81 84 83 84 85 78 70 67 60 58 58 60 63 65 68 71 74 77 79 78 76 74 73
69 58 65 70 70 74 86 87 86 89 92 96 97 97 96 95 98 98 96 94 94 92 89 87 87 82 83 80 85 81 84 90 86 88 93 92 80 74 65 61 61 56 57 59 61 64 69 74 77 78 78 78 78 77
72 77 81 75 86 95 98 97 97 94 95 94 91 92 90 90 89 88 86 87 97 98 98 98 96 95 97 96 90 91 96 97 94 97 98 94 85 78 74 73 69 64 59 59 60 59 57 56 55 57 62 70 75 77
85 81 81 84 92 98 98 98 97 94 96 95 92 89 86 80 78 78 80 83 94 98 98 95 97 97 92 98 99 95 97 98 96 98 93 86 84 83 80 78 76 71 67 64 60 57 56 56 57 57 57 58 58 59
95 94 96 95 92 96 95 98 98 96 97 94 90 87 81 76 73 70 74 78 88 97 98 98 98 97 90 95 98 98 95 97 98 98 94 91 88 87 84 81 78 72 69 65 63 61 60 60 60 60 60 61 61 61
99 98 98 97 98 99 99 98 97 99 98 95 91 86 79 75 69 66 69 76 84 93 98 98 98 98 98 97 95 97 97 96 98 98 99 96 97 94 91 89 89 84 80 77 71 67 67 67 68 68 67 66 65 63
99 98 94 91 97 96 98 95 99 99 98 97 95 89 81 74 72 68 71 76 82 87 94 98 98 98 98 98 92 94 97 98 98 98 97 98 98 98 95 94 93 92 90 84 78 74 72 70 69 68 68 66 61 57
98 94 90 86 85 88 93 93 99 97 98 99 97 91 87 80 76 75 78 80 86 91 89 92 95 94 95 98 97 94 96 98 98 99 98 98 98 96 97 96 94 90 83 79 75 74 70 64 58 53 47 41 40 41

GFSWCAN_prec_cthk_228.txt.gz
RH
25 26 28 30 31 31 30 35 31 31 35 40 43 45 45 49 51 56 58 61 63 63 52 57 57 57 53 53 55 50 58 46 50 60 78 72 80 84 85 77 78 83 95 92 95 95 78 55 59 68 56 49 53 51
26 28 30 32 33 33 34 38 39 41 41 45 47 45 41 43 45 50 53 56 60 64 50 51 57 54 54 53 63 63 59 59 55 62 63 73 74 82 81 78 75 86 83 91 90 71 61 66 68 69 70 67 60 58
22 27 32 34 36 35 38 39 39 42 45 50 53 54 52 51 47 43 47 53 53 57 48 45 45 45 46 46 54 62 54 59 58 58 62 62 74 72 78 70 71 76 79 88 92 66 70 69 70 76 75 75 71 64
21 28 33 39 39 38 42 39 38 41 47 50 53 54 53 53 54 54 53 53 52 52 55 42 37 41 40 43 46 43 42 55 63 68 71 69 70 73 78 76 74 83 86 85 81 79 75 77 75 76 74 74 70 66
25 29 34 37 37 40 41 38 39 43 47 53 56 56 56 55 54 56 55 54 54 57 52 47 39 37 36 37 40 49 54 65 77 81 78 73 76 89 84 79 71 77 76 86 79 78 79 72 73 73 74 75 71 65
32 35 35 38 44 43 43 41 42 46 48 49 51 54 57 55 54 59 58 45 49 57 62 59 42 34 39 41 44 47 50 64 73 76 76 68 65 95 87 70 58 71 68 72 74 81 82 72 76 78 65 63 65 66
39 41 47 49 51 50 46 44 49 50 52 54 54 55 53 54 55 61 56 49 55 61 64 63 54 41 40 46 47 49 60 70 78 83 80 75 68 99 89 74 60 74 76 75 80 83 84 82 79 83 82 73 70 68
54 54 51 53 55 53 51 53 54 57 58 58 57 58 56 56 55 54 49 59 59 66 66 65 59 47 38 41 54 63 70 76 80 85 81 75 85 98 87 62 66 73 82 83 84 90 91 85 81 82 85 83 77 71
58 57 58 61 61 60 59 57 61 60 61 58 57 57 58 59 56 43 46 48 59 63 64 61 63 55 51 58 63 69 74 77 77 81 84 91 90 83 65 69 74 80 85 87 85 84 76 74 74 75 84 87 80 73
66 68 70 71 69 63 60 64 62 64 61 59 59 60 57 57 56 56 66 70 73 71 70 64 60 54 53 66 70 72 74 77 79 73 79 81 68 61 73 79 83 88 88 88 80 74 71 69 71 73 79 83 78 82
76 76 76 74 69 67 66 68 65 62 61 60 62 63 64 64 75 79 83 84 83 77 70 62 57 59 65 68 74 77 76 79 77 69 82 78 73 81 86 93 92 85 83 80 80 75 71 69 70 74 80 79 89 97
83 80 77 74 71 69 68 68 64 63 62 63 66 65 66 64 72 83 85 84 79 75 69 64 63 67 69 73 80 86 86 82 75 76 84 80 69 70 76 79 80 81 82 81 77 73 71 72 74 81 86 86 98 97
84 80 77 72 69 66 68 66 64 63 70 69 62 61 58 61 71 78 81 80 77 63 55 65 74 80 80 87 94 93 89 83 76 79 71 71 68 61 61 65 71 73 80 80 76 75 77 80 84 88 93 96 98 98
83 77 72 72 65 68 66 65 67 74 76 69 67 65 62 66 59 57 60 60 61 66 72 75 79 86 90 99 98 94 87 85 83 76 69 68 60 57 58 59 63 66 73 78 77 76 81 88 92 95 98 98 98 98
78 78 74 66 65 67 67 74 80 81 81 75 70 70 61 53 55 65 67 61 60 66 73 79 82 84 81 89 90 92 91 85 78 72 65 57 62 60 57 54 55 66 73 77 80 81 83 93 97 98 99 98 99 98
82 75 68 71 75 74 78 83 85 90 87 79 72 67 61 64 61 62 66 71 71 71 77 79 87 88 90 96 97 92 88 81 71 63 55 60 65 64 63 57 53 60 70 80 84 88 86 93 98 98 98 98 98 98
79 72 77 82 83 81 82 81 85 82 74 73 67 56 52 53 50 46 54 56 65 61 75 86 93 88 82 91 92 84 77 68 63 54 62 67 66 65 67 64 50 52 66 85 92 95 94 94 98 98 98 98 98 98
79 77 80 78 80 80 84 83 80 76 74 66 62 49 48 47 46 46 48 47 47 53 64 74 78 83 86 75 74 66 71 72 68 65 68 66 65 66 70 65 51 55 58 82 93 95 95 96 98 98 98 98 98 98
63 68 72 74 76 77 76 75 72 68 59 57 55 50 48 48 45 45 45 48 59 64 67 67 67 66 59 55 56 56 64 69 68 58 61 67 66 68 68 59 54 57 59 79 95 95 95 94 94 95 97 98 97 96
74 75 67 71 80 81 79 76 72 68 66 63 60 58 59 55 53 53 56 61 62 59 67 71 64 61 63 60 62 67 66 67 72 71 67 74 73 68 68 60 55 57 59 66 85 95 95 93 90 90 90 90 93 96
74 70 72 79 80 79 78 74 71 65 60 60 56 56 51 50 48 45 45 44 47 48 50 51 52 49 50 52 55 58 60 63 75 79 75 76 75 71 67 66 60 58 55 58 69 86 91 92 89 83 81 80 82 86
71 79 78 79 77 74 70 67 67 62 57 54 50 44 47 49 43 39 40 44 45 39 38 42 47 52 51 49 46 49 53 54 58 66 66 72 77 75 74 66 61 59 56 60 66 75 86 90 88 84 82 82 84 84
74 76 73 71 73 71 65 59 59 54 58 54 48 55 55 53 47 44 52 46 42 46 47 46 47 50 52 48 47 46 47 48 57 63 62 68 77 77 75 67 62 55 58 64 69 74 79 87 88 82 81 82 84 85
78 83 81 76 74 69 65 63 58 56 57 61 62 61 57 54 49 57 53 50 51 49 50 50 50 47 45 47 47 45 39 46 50 51 59 72 81 80 75 70 65 55 58 64 68 74 80 84 85 80 78 77 81 84
74 73 71 73 69 69 65 60 59 62 63 61 68 68 59 56 64 72 68 70 67 66 63 59 58 60 56 49 48 43 41 42 49 54 53 69 83 85 77 76 67 57 56 60 69 74 76 77 77 78 78 75 76 81
68 63 72 75 72 66 65 68 66 68 70 76 77 72 78 85 83 82 79 87 85 80 81 76 70 63 60 62 53 51 47 51 62 65 67 73 83 82 80 75 67 59 57 57 58 61 66 75 79 78 76 72 73 74
74 64 62 59 65 71 77 78 80 86 88 87 86 87 88 89 86 86 89 88 83 79 85 85 77 71 65 60 61 61 62 67 73 73 80 86 87 88 83 75 67 58 57 59 62 63 67 71 74 76 79 78 76 74
70 68 58 57 62 66 78 87 90 87 88 90 93 93 89 87 85 84 80 75 69 72 88 96 97 88 90 92 90 85 82 86 84 88 93 97 96 97 90 78 68 61 58 59 59 59 59 60 64 69 73 76 78 77
72 72 68 72 78 82 84 87 93 96 93 92 92 96 95 90 85 79 72 64 65 74 85 95 97 98 98 98 98 95 96 94 93 96 96 98 98 95 86 77 71 70 69 66 62 59 59 59 58 56 54 54 56 61
83 85 88 88 87 85 87 95 98 99 99 98 95 95 94 91 83 74 65 61 61 70 86 97 98 97 98 98 98 97 94 95 93 99 98 97 97 95 88 83 81 80 80 76 73 70 65 61 57 56 57 57 58 57
75 84 90 93 97 98 98 98 99 99 98 98 97 96 94 91 81 72 63 60 61 68 83 95 98 98 98 98 98 98 98 96 98 98 99 98 97 92 90 89 85 84 82 78 74 71 68 66 64 63 62 62 62 62
83 86 89 91 96 97 98 96 99 99 97 98 99 98 94 88 83 73 63 59 63 69 82 91 97 98 98 99 98 99 96 92 94 97 98 99 98 99 97 96 95 93 89 86 84 81 79 78 75 72 71 70 69 68
92 91 92 91 89 89 90 95 99 99 98 97 97 96 94 90 85 78 70 63 66 77 86 89 95 98 98 98 98 99 98 98 98 98 98 98 98 99 98 97 96 94 91 89 87 85 84 81 78 76 75 73 69 65

GFSWCAN_prec_cthk_234.txt.gz
RH
25 25 26 26 27 27 26 26 26 29 31 29 28 32 36 44 47 52 57 58 60 63 57 53 55 52 52 52 55 57 59 62 64 62 59 60 64 61 63 51 54 63 83 86 85 84 77 63 65 68 66 67 71 66
27 26 25 26 27 27 26 26 27 29 32 32 31 32 34 41 46 47 57 57 58 62 56 53 48 46 50 51 58 61 55 58 66 69 65 65 64 71 64 63 54 57 58 73 68 65 65 69 72 73 76 72 76 75
27 25 25 26 26 26 26 30 31 31 32 33 33 35 38 44 49 48 56 62 58 58 49 50 45 42 44 47 54 58 52 56 62 64 69 65 64 60 62 58 57 52 57 65 71 63 72 73 73 77 79 78 78 80
31 26 26 26 26 26 27 31 33 34 35 35 34 35 40 50 53 53 62 62 60 58 58 46 42 40 36 41 46 51 49 59 67 68 68 63 66 65 62 64 63 54 61 68 72 69 71 73 77 80 80 85 86 85
34 28 27 26 26 26 27 30 33 36 36 35 34 39 47 54 55 56 72 72 66 59 58 56 50 41 39 46 45 48 53 60 64 70 68 64 65 75 70 68 57 70 66 81 70 70 72 65 74 79 81 85 87 85
41 31 28 27 27 27 30 33 36 38 37 34 34 37 50 59 57 67 76 70 66 66 64 64 55 45 48 56 54 55 56 61 62 65 63 59 67 76 74 58 55 64 72 78 66 70 69 68 74 79 78 80 80 77
45 35 31 30 30 31 34 36 39 40 37 36 36 41 53 57 60 74 72 69 66 64 65 62 57 49 52 55 56 58 58 61 63 67 65 64 71 85 74 68 49 61 68 71 70 72 69 75 78 78 73 68 66 65
48 38 33 32 31 34 36 40 44 44 42 41 43 50 59 63 71 73 65 65 64 66 67 64 59 53 50 56 58 58 62 68 71 69 67 69 73 80 71 49 56 61 64 68 76 80 81 73 71 71 70 67 62 63
50 38 34 34 40 43 46 49 49 47 47 52 56 63 66 76 80 72 63 63 68 70 71 68 62 58 53 60 63 69 71 72 71 73 71 73 74 75 57 65 74 77 74 73 77 80 78 76 75 72 70 68 67 68
57 51 46 46 48 51 53 53 54 59 69 74 70 69 80 77 71 71 71 71 70 70 73 64 60 62 60 68 77 75 74 75 78 68 72 77 70 61 65 64 62 62 66 63 62 66 79 83 79 74 74 75 75 76
63 59 55 55 56 58 62 65 73 77 80 79 80 81 80 79 76 77 81 75 73 72 65 63 62 67 72 68 67 69 74 74 75 75 77 76 68 64 62 62 58 59 58 54 58 68 74 77 73 73 76 80 85 89
74 67 65 67 73 75 78 82 84 86 86 85 81 81 79 80 81 83 80 76 75 68 69 71 73 72 73 71 71 75 76 75 76 80 85 80 70 69 61 58 58 62 59 52 57 67 76 78 74 77 82 90 95 98
93 92 89 87 83 85 86 88 92 89 85 86 87 83 79 81 81 79 78 76 74 72 76 75 78 80 78 79 82 83 86 83 82 84 79 72 75 72 61 55 59 62 61 58 55 63 73 78 76 81 88 97 98 98
98 96 91 89 91 93 92 96 88 87 91 86 79 75 72 74 67 64 67 74 83 78 80 82 83 86 88 87 87 94 92 91 88 83 76 73 79 77 69 62 60 62 65 61 53 58 68 78 79 86 94 98 98 98
98 97 95 96 97 94 91 90 91 95 87 82 74 72 63 61 64 72 73 76 78 77 79 85 85 89 91 93 87 87 89 85 79 77 81 89 90 83 76 71 66 63 63 62 55 58 66 80 85 88 96 98 98 98
96 96 98 97 98 98 97 96 92 88 87 82 75 73 71 73 70 73 72 73 72 73 75 77 77 79 76 79 80 84 82 75 79 80 81 85 84 82 82 77 67 61 64 61 58 61 69 84 90 93 96 97 98 98
98 98 97 98 98 90 90 89 91 90 88 81 78 76 75 77 79 78 75 71 72 72 74 75 84 80 89 91 83 78 82 93 91 90 90 90 86 80 78 75 66 57 64 61 58 62 72 84 92 95 96 97 98 98
98 97 93 86 88 97 96 93 92 92 89 85 84 82 79 76 73 69 66 63 65 65 65 67 67 66 69 68 76 96 97 97 94 89 87 82 78 77 76 77 70 56 67 64 61 61 67 79 94 94 96 97 98 98
96 94 89 92 92 93 98 98 96 89 85 86 85 77 70 67 61 60 58 55 55 56 59 62 64 57 58 57 60 71 72 70 70 68 68 68 70 65 62 65 60 56 72 69 63 62 63 65 85 93 92 94 97 98
91 98 97 97 97 98 96 95 92 91 85 80 71 64 65 61 63 67 68 67 67 69 69 65 59 59 65 73 74 66 58 56 56 54 53 54 58 60 58 64 76 81 77 75 66 63 63 60 64 85 91 88 90 94
91 91 97 94 94 94 92 87 79 76 75 71 69 67 65 60 57 56 58 57 60 63 61 61 60 63 63 60 56 52 50 50 49 51 50 48 45 47 52 61 76 82 83 82 77 66 60 60 60 66 83 87 88 87
86 84 88 91 92 89 87 86 81 80 75 73 68 65 63 61 55 53 51 51 48 44 43 43 46 49 49 46 46 46 46 44 43 44 45 47 49 48 49 62 68 77 80 82 80 73 62 58 58 62 68 81 83 83
86 89 89 89 87 85 84 82 83 79 74 70 66 62 58 55 54 52 54 50 51 48 47 48 49 50 49 45 43 42 44 46 46 45 47 46 47 47 47 49 64 72 71 76 80 79 64 59 59 62 69 74 81 80
84 85 86 84 79 81 78 79 75 73 66 64 60 60 56 60 59 61 56 57 57 52 54 56 56 55 54 55 53 50 52 53 51 46 44 44 42 38 44 47 53 65 70 69 78 80 66 60 61 63 72 77 79 81
83 87 86 84 83 82 80 74 72 69 69 63 63 65 60 63 65 62 56 60 59 62 65 64 62 59 55 48 48 54 59 57 53 48 39 45 44 40 40 42 46 52 63 72 83 75 66 62 64 69 74 76 77 79
85 84 82 79 81 76 72 69 68 65 65 66 64 63 66 71 72 69 62 60 66 68 69 60 56 54 53 50 50 56 60 60 58 52 40 46 45 42 38 44 48 59 69 85 84 73 63 61 69 67 69 74 76 78
76 73 75 76 78 72 72 69 69 72 73 75 73 75 77 77 73 68 65 68 71 67 62 60 56 52 49 48 53 61 68 70 67 64 55 49 45 42 39 42 47 63 79 89 83 72 60 57 62 68 71 73 72 75
80 75 71 70 74 79 81 79 76 71 65 65 70 74 73 75 73 73 76 71 67 64 61 59 56 52 51 52 60 69 80 81 78 76 67 51 43 40 37 39 51 70 88 90 84 69 57 58 65 68 72 74 75 76
80 77 70 68 70 73 76 76 71 65 66 62 66 80 88 84 82 83 79 71 68 65 61 58 54 50 53 62 76 89 91 93 93 88 76 60 58 47 41 50 69 87 88 87 79 65 58 61 65 68 72 76 77 78
76 71 72 73 75 74 71 74 72 72 71 72 76 82 89 92 93 88 81 74 71 67 62 60 55 51 55 67 85 94 98 98 96 90 81 74 68 73 72 77 87 90 91 84 71 65 63 63 62 58 57 58 57 57
78 81 81 79 77 77 79 79 79 78 78 79 84 92 94 96 94 92 86 76 69 66 67 64 55 56 64 81 92 94 95 96 98 98 98 98 89 90 96 98 98 97 91 79 72 67 63 60 59 60 62 63 63 60
76 79 79 80 79 78 77 76 79 83 87 90 93 96 99 99 98 93 85 73 68 70 68 63 56 58 73 91 98 98 98 98 96 98 98 97 97 98 98 96 93 95 87 81 77 75 72 72 73 75 74 71 68 67
65 68 70 73 75 77 81 85 86 87 92 94 95 98 99 99 98 93 86 75 72 70 67 61 56 62 77 94 98 98 98 98 96 98 98 98 99 98 98 98 98 95 89 87 85 84 86 86 83 80 78 79 79 80

GFSWCAN_prec_cthk_237.txt.gz
RH
58 54 42 29 27 27 28 29 29 30 29 29 24 28 31 33 36 39 50 58 62 64 62 55 54 53 56 56 57 56 59 57 62 68 66 62 64 60 58 60 59 59 61 74 92 87 75 65 65 74 70 65 65 63
59 57 51 40 28 26 26 31 30 29 29 30 29 28 31 32 34 36 45 52 57 62 61 59 53 51 53 52 55 60 57 61 62 68 68 73 68 72 67 69 58 62 60 63 64 72 69 60 58 59 66 70 69 71
61 58 55 47 37 27 26 29 30 31 29 30 30 29 31 32 34 35 46 54 56 57 59 58 51 50 49 47 51 60 62 60 60 63 70 70 66 58 61 56 54 60 61 65 64 55 55 58 63 65 68 71 72 75
65 60 57 51 43 33 27 29 32 34 34 31 30 31 33 34 34 35 42 51 56 58 63 54 46 45 45 46 52 56 57 60 63 64 72 73 69 62 60 58 61 61 64 63 65 52 64 69 70 73 69 70 71 76
68 64 58 52 46 39 30 30 32 36 37 34 33 35 36 36 38 42 45 54 60 61 69 67 59 53 48 52 49 56 57 57 60 68 67 65 61 67 65 65 60 63 67 73 66 69 74 68 71 71 70 72 75 78
72 67 60 53 47 42 41 36 37 38 38 38 40 41 41 42 43 51 59 58 67 72 73 71 68 52 53 52 54 53 54 60 65 68 65 61 62 73 75 56 56 61 65 71 71 69 70 69 67 72 75 78 72 68
76 70 61 54 49 46 45 39 39 41 40 40 41 42 44 45 48 56 58 64 66 74 73 70 65 62 58 61 60 63 61 64 67 67 64 61 64 78 74 64 43 58 61 66 72 71 68 73 80 76 70 68 69 66
79 72 62 56 51 50 48 43 41 40 40 39 40 43 46 48 51 54 59 61 69 72 71 69 63 62 61 63 63 60 65 66 65 65 63 63 68 74 71 53 57 60 72 75 75 74 72 65 64 71 72 69 65 66
80 71 63 56 53 54 51 44 40 41 40 42 45 49 52 54 56 59 64 73 76 76 78 73 67 69 65 60 61 68 68 73 67 68 66 70 71 72 60 65 68 75 65 58 54 53 53 54 63 72 79 75 71 70
81 73 66 62 57 50 46 44 45 46 51 55 55 58 61 62 63 71 78 84 82 82 76 67 64 64 66 74 79 80 81 76 79 72 70 78 65 63 64 69 72 64 55 55 52 45 49 59 67 76 78 76 77 79
85 77 66 60 53 49 50 55 56 59 61 63 67 70 69 69 82 87 89 80 75 77 67 64 62 65 67 69 73 72 76 73 75 69 80 72 68 77 79 76 71 62 57 58 55 53 54 57 67 76 76 77 81 91
84 72 64 60 60 62 63 65 67 68 73 74 73 77 85 92 90 88 81 78 79 69 67 67 72 67 72 74 74 74 74 71 70 79 85 70 73 76 77 74 66 60 60 60 59 57 53 56 65 75 74 78 88 97
84 79 75 72 71 70 73 76 78 83 84 84 86 88 90 89 91 79 80 79 78 73 74 74 75 75 77 76 79 77 83 72 73 86 76 65 75 83 78 73 70 67 66 57 57 58 56 55 63 76 78 86 96 97
87 81 79 77 77 78 83 86 90 93 94 93 92 96 88 84 75 69 68 74 84 86 86 80 84 83 84 85 80 85 79 83 84 76 68 84 88 88 85 81 76 73 63 55 55 59 59 60 66 79 84 92 98 99
90 83 83 85 90 94 96 98 98 98 98 94 89 87 76 73 73 74 75 83 85 85 85 86 87 88 91 93 87 82 92 85 72 68 83 92 89 85 84 81 79 75 68 61 49 60 58 62 70 82 90 93 98 98
98 99 98 97 98 98 97 98 98 98 97 97 88 82 75 73 72 75 76 78 83 83 81 84 84 88 86 81 78 78 69 65 70 93 93 90 84 78 76 82 72 71 71 62 52 58 57 61 71 82 92 96 97 98
98 96 96 98 98 98 98 98 98 98 97 91 89 84 79 80 88 83 75 81 82 77 79 77 86 80 78 82 75 71 78 91 96 90 89 88 83 80 82 83 78 74 69 63 53 57 60 60 65 80 90 96 98 98
97 97 97 98 98 98 98 98 98 95 92 90 90 83 77 79 80 81 81 76 75 75 76 78 75 71 73 70 71 92 96 96 97 97 93 92 89 87 87 83 72 66 65 62 54 57 62 60 61 67 86 91 97 98
97 97 98 98 97 98 98 98 98 96 91 92 89 85 87 89 85 80 75 76 76 72 69 72 70 64 64 67 66 69 81 82 78 76 74 75 73 70 65 59 57 60 63 67 70 69 65 59 62 60 69 87 90 94
98 98 98 98 98 98 97 99 96 97 91 89 86 87 84 83 78 76 75 73 69 66 67 63 61 62 65 70 77 80 77 73 66 60 58 56 55 53 52 50 51 56 61 67 82 79 73 63 60 60 58 70 86 87
98 99 99 98 99 98 98 92 91 90 92 86 85 83 77 76 76 75 73 69 69 69 74 71 74 72 73 72 74 69 64 62 60 55 50 47 48 48 44 42 44 51 55 59 79 81 79 77 64 59 58 59 68 81
99 98 99 99 98 98 98 93 88 88 83 79 75 75 75 74 72 69 65 63 60 63 64 64 63 62 62 60 54 49 47 45 45 45 44 46 52 49 47 51 51 52 56 63 74 83 80 80 72 62 58 56 61 66
96 98 98 96 95 94 96 93 89 83 82 78 75 75 73 69 65 62 61 57 59 62 59 55 51 48 48 49 49 49 50 52 52 52 50 48 48 48 46 47 49 49 56 60 70 80 77 80 77 64 58 58 62 66
91 95 95 91 86 93 83 84 83 80 79 76 72 71 67 68 68 71 68 62 73 67 58 53 52 53 53 54 54 54 52 51 50 48 49 49 49 48 48 47 48 51 54 60 62 74 76 74 79 66 60 59 64 70
94 92 88 86 84 84 82 80 77 76 76 72 69 67 67 67 69 66 61 64 70 61 58 58 60 61 55 52 51 51 49 47 47 49 46 51 50 47 46 44 43 44 47 52 56 67 75 74 78 68 64 64 71 73
84 86 84 82 83 81 78 78 76 72 72 72 69 64 63 66 69 67 66 75 66 64 65 68 68 63 58 53 51 48 45 45 44 45 45 53 53 52 50 46 42 37 44 50 56 64 74 82 77 68 68 71 71 72
85 82 80 81 80 76 76 75 74 74 73 72 69 71 75 78 71 80 75 69 67 69 67 63 60 58 54 51 49 46 44 45 46 47 48 54 57 59 57 49 39 35 45 51 64 75 88 83 74 65 67 64 69 70
80 79 79 76 77 79 80 77 80 75 72 74 76 76 75 74 89 84 79 74 69 66 64 59 54 52 50 47 46 43 42 45 49 55 63 65 69 66 59 49 39 36 37 54 75 89 88 82 71 62 64 67 68 68
83 82 79 78 77 77 75 75 76 75 74 74 77 73 78 81 78 79 82 78 73 71 68 62 56 52 49 49 47 48 51 58 68 76 80 79 82 78 71 52 44 37 38 60 81 90 87 78 67 63 66 69 71 74
81 79 79 80 73 66 66 70 78 84 82 81 80 74 67 63 64 74 81 83 80 75 65 58 56 54 53 49 47 49 62 82 90 90 88 90 84 72 62 51 44 45 54 74 90 91 82 71 63 65 69 72 72 71
74 72 75 75 72 68 79 86 80 75 73 69 66 67 72 71 71 79 83 81 81 76 70 64 59 58 57 52 51 57 74 89 93 96 98 95 86 76 69 62 52 63 83 93 94 87 76 67 68 67 65 60 58 58
74 76 75 71 67 75 75 70 72 76 78 73 71 71 74 80 84 82 87 88 87 75 69 62 61 61 58 55 61 82 96 96 94 98 98 98 94 88 74 74 76 96 98 98 92 82 74 70 67 62 60 61 64 65
66 66 69 67 66 63 69 71 69 72 81 82 85 78 83 89 91 87 90 91 85 75 68 66 64 63 57 58 74 94 98 98 96 98 98 98 95 98 93 95 98 98 98 96 86 81 78 73 68 69 71 76 78 75